CW9849 Weather Reports


Display with metric or nautical units.
time (UTC)temp
F
wind
direction
speed
MPH
gust
MPH
rain 1hr
in
rain 24hr
in
rain mn
in
humidity
%
barometer
mb
20260831010028 62 283 16.0 25.0 0.00 0.05 0.01 86 1010.4
20260831004528 61 265 13.0 21.0 0.01 0.05 0.01 88 1010.4
20260831003027 61 283 14.0 31.0 0.01 0.05 0.01 84 1010.4
20260831001530 62 271 18.0 26.0 0.01 0.05 0.01 86 1010.1
20260831000022 60 281 21.0 30.0 0.00 0.04 0.00 85 1009.9
20260830234518 63 279 19.0 29.0 0.00 0.04 0.00 80 1009.7
20260830233018 63 279 17.0 27.0 0.00 0.04 0.00 81 1009.5
20260830231515 63 286 19.0 30.0 0.00 0.04 0.00 81 1009.3
20260830230012 62 269 16.0 28.0 0.00 0.04 0.00 83 1009.3
20260830224514 63 252 16.0 28.0 0.00 0.04 0.04 80 1009.0
20260830223008 63 253 15.0 26.0 0.00 0.04 0.04 78 1008.9
20260830221606 63 271 13.0 24.0 0.00 0.04 0.04 77 1008.8
20260830220006 63 264 14.0 23.0 0.00 0.04 0.04 78 1008.8
20260830214511 63 241 16.0 30.0 0.00 0.04 0.04 76 1008.7
20260830213004 63 266 20.0 32.0 0.00 0.04 0.04 77 1008.6
20260830211503 63 253 19.0 27.0 0.00 0.04 0.04 78 1008.5
20260830210004 63 240 11.0 24.0 0.00 0.04 0.04 78 1008.3
20260830204501 63 274 20.0 31.0 0.00 0.04 0.04 75 1008.1
20260830203100 63 253 21.0 28.0 0.00 0.04 0.04 74 1008.0
20260830201600 63 279 20.0 33.0 0.00 0.04 0.04 75 1007.9
20260830200112 63 248 24.0 33.0 0.00 0.04 0.04 76 1007.5
20260830194635 63 248 22.0 34.0 0.00 0.04 0.04 76 1007.2
20260830193056 62 272 16.0 26.0 0.00 0.04 0.04 83 1007.1
20260830191600 63 276 15.0 26.0 0.00 0.04 0.04 77 1006.9
20260830190056 63 285 16.0 24.0 0.00 0.04 0.04 78 1006.8
20260830184555 63 288 12.0 22.0 0.00 0.04 0.04 79 1006.5
20260830183105 64 233 16.0 27.0 0.00 0.04 0.04 77 1006.3
20260830181553 64 262 16.0 26.0 0.00 0.04 0.04 81 1006.2
20260830180053 63 252 21.0 30.0 0.00 0.04 0.04 83 1006.2
20260830174556 64 220 23.0 32.0 0.00 0.04 0.04 83 1006.2
20260830173107 64 229 24.0 33.0 0.00 0.04 0.04 79 1006.1
20260830171551 64 226 25.0 33.0 0.02 0.04 0.04 82 1005.9
20260830170055 63 238 24.0 32.0 0.02 0.04 0.04 85 1005.8
20260830164555 63 217 21.0 32.0 0.02 0.04 0.04 86 1005.9
20260830163056 64 210 17.0 28.0 0.02 0.04 0.04 87 1006.1
20260830161606 66 202 19.0 30.0 0.00 0.02 0.02 78 1006.1
20260830160044 68 196 19.0 28.0 0.00 0.02 0.02 71 1006.1
20260830154646 70 213 22.0 31.0 0.00 0.02 0.02 68 1006.3
20260830153047 72 221 20.0 26.0 0.00 0.02 0.02 67 1006.4
20260830151542 69 222 19.0 27.0 0.00 0.02 0.02 71 1006.6
20260830150056 71 227 18.0 26.0 0.00 0.02 0.02 67 1006.8
20260830144542 71 222 20.0 27.0 0.00 0.02 0.02 68 1006.8
20260830143037 72 218 17.0 25.0 0.00 0.02 0.02 68 1007.1
20260830141536 74 238 15.0 22.0 0.00 0.02 0.02 66 1007.1
20260830140032 73 219 12.0 18.0 0.00 0.02 0.02 67 1007.3
20260830134537 71 219 11.0 18.0 0.00 0.02 0.02 72 1007.5
20260830133029 65 213 10.0 17.0 0.00 0.02 0.02 80 1007.5
20260830131527 65 218 15.0 22.0 0.00 0.02 0.02 71 1007.7
20260830130025 67 252 17.0 26.0 0.00 0.02 0.02 64 1007.8
20260830124521 70 219 14.0 22.0 0.00 0.02 0.02 76 1007.7
20260830123020 68 222 12.0 18.0 0.00 0.02 0.02 79 1007.8
20260830121523 67 226 12.0 24.0 0.00 0.02 0.02 79 1007.7
20260830120019 68 192 15.0 24.0 0.00 0.02 0.02 78 1007.7
20260830114520 69 181 14.0 22.0 0.00 0.02 0.02 78 1007.8
20260830113016 68 201 15.0 23.0 0.00 0.02 0.02 81 1007.8
20260830111522 66 199 14.0 20.0 0.00 0.02 0.02 83 1007.9
20260830110014 65 205 15.0 22.0 0.00 0.02 0.02 82 1008.0
20260830104513 65 202 15.0 23.0 0.00 0.02 0.02 83 1008.1
20260830103016 66 210 16.0 25.0 0.00 0.02 0.02 84 1008.1
20260830101512 65 214 17.0 27.0 0.00 0.02 0.02 87 1008.2
20260830100014 62 200 16.0 26.0 0.00 0.02 0.02 88 1008.2
20260830094510 62 222 17.0 27.0 0.02 0.03 0.02 88 1008.3
20260830093007 62 222 21.0 30.0 0.02 0.03 0.02 89 1008.2
20260830091517 63 172 18.0 24.0 0.02 0.03 0.02 90 1008.2
20260830090002 63 202 15.0 26.0 0.02 0.03 0.02 86 1008.6
20260830084603 65 197 16.0 27.0 0.00 0.01 0.00 81 1008.6
20260830083059 68 199 16.0 25.0 0.00 0.01 0.00 77 1008.8
20260830081559 69 209 16.0 26.0 0.00 0.01 0.00 77 1008.6
20260830080058 68 205 15.0 23.0 0.00 0.01 0.00 77 1008.8
20260830074602 67 198 16.0 24.0 0.00 0.02 0.00 79 1009.0
20260830073044 65 210 15.0 22.0 0.00 0.02 0.00 83 1009.0
20260830071543 64 199 13.0 20.0 0.00 0.02 0.00 84 1009.2
20260830070040 64 210 13.0 20.0 0.00 0.02 0.00 85 1009.2
20260830064540 63 190 12.0 20.0 0.00 0.03 0.00 86 1009.2
20260830063035 63 199 13.0 19.0 0.00 0.03 0.00 87 1009.1
20260830061535 62 210 15.0 20.0 0.00 0.03 0.00 88 1009.2
20260830060030 62 207 14.0 20.0 0.00 0.03 0.00 88 1009.4
20260830054528 62 240 13.0 21.0 0.00 0.03 0.00 87 1009.2
20260830053025 62 200 12.0 19.0 0.00 0.03 0.00 88 1009.3
20260830051523 62 204 15.0 21.0 0.00 0.03 0.00 89 1009.4
20260830050022 62 206 11.0 17.0 0.00 0.03 0.00 90 1009.5
20260830044520 61 215 10.0 16.0 0.00 0.04 0.00 88 1009.7
20260830043018 61 219 10.0 15.0 0.00 0.04 0.00 87 1009.7
20260830041516 61 240 9.0 14.0 0.00 0.04 0.00 88 1009.8
20260830040022 61 229 12.0 17.0 0.00 0.04 0.00 88 1009.8
20260830034514 61 229 9.0 15.0 0.00 0.04 0.00 89 1009.9
20260830033012 61 224 9.0 14.0 0.00 0.04 0.00 90 1009.9
20260830031511 61 221 10.0 18.0 0.00 0.04 0.00 89 1010.2
20260830030010 62 204 7.0 11.0 0.00 0.04 0.00 90 1010.3
20260830024516 62 222 8.0 12.0 0.00 0.19 0.00 89 1010.5
20260830023008 62 231 9.0 13.0 0.00 0.19 0.00 88 1010.4
20260830021505 62 222 10.0 15.0 0.00 0.19 0.00 88 1010.6
20260830020010 62 236 10.0 15.0 0.00 0.19 0.00 89 1010.7
20260830014505 62 231 11.0 16.0 0.00 0.44 0.00 88 1010.7
20260830013003 62 198 11.0 16.0 0.00 0.44 0.00 90 1010.6
20260830011506 62 217 11.0 16.0 0.00 0.44 0.00 90 1010.7